Temp
68 69 68 65 66 67 68 66 66 64 64 66 65 65 65 67 62 64 61 60 60 62
65 64 65 63 64 63 67 66 69 68 66 67 65 66 65 63 62 64 64 61 62 60
63 64 64 64 64 66 67 67 67 65 66 67 66 65 64 62 64 64 64 64 61 61
63 66 67 67 67 67 67 67 66 66 66 65 64 64 63 63 64 62 63 64 61 61
66 66 66 67 67 66 65 65 65 66 66 65 65 64 63 62 62 61 60 61 61 62
66 65 64 64 64 65 66 66 65 65 64 64 64 64 64 64 62 63 62 61 61 61
63 64 64 65 65 66 66 65 64 64 64 64 63 63 64 64 63 62 62 62 61 62
64 64 62 64 63 64 63 63 64 62 62 61 61 60 58 60 61 60 60 62 62 61
62 61 63 62 61 60 61 61 61 60 58 59 59 48 49 51 58 60 60 57 59 59
59 60 59 55 57 58 58 59 57 56 56 55 55 47 46 48 57 58 57 58 57 58
60 59 56 55 58 57 56 55 54 53 51 51 52 46 45 47 57 56 57 58 57 55
58 58 58 57 56 53 54 50 51 48 48 48 48 45 44 48 53 54 57 57 52 50
58 57 53 55 50 49 49 47 47 47 48 48 48 44 44 48 59 55 54 50 48 46
57 53 50 49 49 48 48 48 48 48 51 52 49 49 44 44 50 48 48 46 45 46
MSLP
1019.47 1019.14 1019.01 1018.90 1018.94 1018.66 1018.08 1017.87 1017.93 1018.30 1018.15 1017.99 1017.84 1017.80 1017.52 1017.27 1017.63 1017.47 1017.36 1017.35 1017.29 1016.78
1019.72 1019.55 1019.27 1019.26 1019.02 1018.58 1018.21 1017.85 1017.58 1017.63 1017.55 1017.32 1017.21 1017.26 1017.41 1017.43 1017.40 1017.12 1017.02 1017.03 1016.69 1016.66
1019.54 1019.25 1019.05 1018.84 1018.74 1018.26 1018.00 1017.78 1017.70 1017.55 1017.28 1016.93 1016.97 1017.12 1017.30 1017.31 1017.20 1016.95 1016.77 1016.46 1016.42 1016.18
1019.45 1018.98 1018.66 1018.49 1018.27 1017.99 1017.84 1017.54 1017.41 1017.25 1016.96 1016.99 1017.03 1017.08 1017.12 1017.04 1016.85 1016.67 1016.51 1016.33 1016.09 1015.88
1019.06 1019.09 1018.77 1018.40 1018.25 1018.19 1018.02 1017.76 1017.43 1017.07 1016.85 1016.87 1016.76 1016.87 1016.89 1016.64 1016.58 1016.55 1016.40 1016.29 1016.01 1015.61
1019.25 1019.12 1018.99 1018.79 1018.50 1018.28 1017.91 1017.52 1017.44 1017.19 1017.03 1016.86 1016.83 1016.83 1016.77 1016.62 1016.54 1016.22 1016.23 1016.19 1015.81 1015.61
1019.39 1019.12 1018.61 1018.62 1018.47 1017.89 1017.69 1017.51 1017.49 1017.29 1017.20 1017.05 1016.96 1016.96 1016.99 1016.83 1016.47 1016.27 1016.10 1016.07 1015.82 1015.63
1019.21 1018.89 1018.78 1018.67 1018.60 1018.40 1018.21 1018.04 1017.75 1017.58 1017.41 1017.45 1017.48 1017.82 1017.97 1017.58 1016.89 1016.45 1016.20 1015.90 1015.80 1015.74
1018.97 1018.67 1018.68 1018.88 1018.80 1018.72 1018.49 1018.27 1018.11 1018.09 1018.07 1017.81 1018.10 1018.64 1018.47 1018.27 1017.36 1016.58 1016.20 1016.23 1016.07 1015.96
1019.52 1019.22 1019.35 1019.68 1019.30 1018.98 1018.72 1018.54 1018.52 1018.71 1018.76 1018.68 1018.69 1018.91 1018.69 1018.30 1017.52 1016.81 1016.44 1016.27 1016.26 1016.01
1020.01 1019.92 1020.09 1020.01 1019.57 1019.50 1019.25 1019.29 1019.24 1019.34 1019.50 1019.45 1019.21 1019.21 1018.82 1018.19 1017.40 1016.97 1016.61 1016.41 1016.56 1016.56
1020.63 1020.39 1020.21 1020.07 1019.94 1020.19 1019.96 1020.15 1020.12 1020.18 1020.02 1019.83 1019.61 1019.41 1018.91 1018.14 1017.43 1017.07 1016.77 1016.95 1017.34 1017.30
1021.02 1020.94 1021.12 1020.82 1021.08 1021.12 1020.90 1020.79 1020.65 1020.41 1020.28 1020.13 1019.89 1019.63 1019.15 1018.51 1017.56 1017.50 1017.57 1017.90 1017.86 1017.78
1021.69 1021.77 1021.93 1021.87 1021.76 1021.56 1021.25 1020.98 1020.61 1020.52 1020.24 1019.93 1019.98 1019.88 1019.72 1019.35 1018.90 1018.77 1018.53 1018.49 1018.42 1018.32
Wind_Speed
7 7 7 5 6 8 7 6 4 4 6 8 6 7 7 7 4 6 4 6 5 6
6 6 7 6 5 6 6 5 7 8 9 9 6 8 7 6 5 7 3 4 4 6
5 4 5 5 7 8 8 9 9 9 10 9 8 6 6 6 5 5 6 6 8 7
5 6 7 8 9 10 11 10 10 10 10 9 6 5 5 6 7 7 6 7 7 6
6 9 11 10 10 10 10 11 10 9 7 5 4 4 6 6 6 6 9 9 8 9
8 9 9 10 10 8 8 9 10 7 6 5 4 4 5 6 7 8 9 8 8 8
9 8 8 7 10 9 11 12 11 9 7 6 5 4 8 10 10 9 8 7 7 8
11 8 7 8 10 10 10 10 10 11 10 9 6 8 10 11 12 9 8 8 7 8
9 5 9 8 9 9 10 10 10 12 11 11 6 9 12 12 11 11 7 5 7 10
13 13 11 9 9 9 9 10 10 9 11 10 8 13 12 14 10 10 7 7 6 8
11 10 9 9 10 11 11 11 9 10 10 9 8 12 12 13 9 6 6 6 9 10
10 11 10 10 12 11 10 9 8 6 6 7 6 11 13 13 5 5 6 10 9 9
10 13 11 12 11 10 7 5 4 5 4 4 5 9 13 15 7 8 8 8 7 11
11 10 10 7 6 8 7 7 5 4 3 3 6 8 10 12 7 5 5 4 5 5
Wind_Direction
319 306 302 21 340 302 315 311 10 260 277 284 269 280 297 294 337 326 341 309 316 313
335 320 323 304 300 299 293 308 293 303 289 291 280 292 296 307 309 303 5 302 298 305
291 272 269 270 285 286 297 294 296 295 286 289 304 314 310 312 291 300 321 297 327 321
312 302 312 318 311 319 313 299 296 290 301 307 321 303 300 298 278 292 301 305 319 327
335 337 321 322 325 324 316 315 309 307 303 305 293 308 305 330 324 303 301 308 314 320
329 322 325 326 333 335 320 328 332 333 324 322 337 338 336 313 335 319 301 291 306 319
299 308 325 350 320 338 340 345 340 340 330 330 343 7 353 339 333 337 310 302 318 326
310 308 347 327 331 349 349 354 352 348 349 0 8 32 355 338 322 331 316 315 341 343
301 325 341 327 341 355 355 359 350 3 11 1 28 13 359 335 319 320 303 324 338 342
341 355 7 356 355 357 351 347 15 22 11 356 351 12 342 331 304 313 306 344 344 317
355 15 22 359 357 353 359 13 11 15 7 355 352 356 342 328 289 308 334 351 19 353
9 10 0 357 2 12 2 17 15 7 348 337 358 358 342 337 323 332 46 30 19 358
12 13 0 1 17 8 356 354 346 328 336 17 336 29 2 358 8 29 25 25 13 14
15 4 29 10 21 3 12 5 8 17 339 30 31 44 18 11 27 19 22 23 21 22